Weather Service Report


929 
ASUS45 KTFX 271310
RWRMT 
MONTANA REGIONAL WEATHER ROUNDUP
NATIONAL WEATHER SERVICE GREAT FALLS MT
700 AM MDT MON JUN 27 2016

NOTE: "FAIR" INDICATES FEW OR NO CLOUDS BELOW 12000 FEET WITH NO
SIGNIFICANT WEATHER AND/OR OBSTRUCTIONS TO VISIBILITY.

MTZ001>007-043-271400-
WEST OF THE DIVIDE
  
CITY           SKY/WX    TMP DP  RH WIND       PRES   REMARKS
KALISPELL      SUNNY     53  49  86 NW3       30.28R                  
MISSOULA       SUNNY     50  42  74 CALM      30.30R                  
BUTTE          SUNNY     43  33  68 CALM      30.38R                  
MULLAN PASS    CLEAR     55  36  48 SE8G18    30.34S                  
ANACONDA         N/A     52  36  54 S5        30.35S                  
DEER LODGE       N/A     48  39  71 CALM      30.38R                  
EUREKA           N/A     46  43  87 CALM      30.31R                  
HAMILTON         N/A     54  39  58 CALM      30.30R                  
LIBBY            N/A     45  43  93 CALM      30.29R                  
$$

MTZ008-052>055-271400-
SOUTHWEST MONTANA
  
CITY           SKY/WX    TMP DP  RH WIND       PRES   REMARKS
BOZEMAN        SUNNY     53  43  68 CALM      30.36R                  
DILLON         SUNNY     54  34  46 S3        30.36R                  
W YELLOWSTONE  CLOUDY    39  32  75 CALM      30.46R                  
ENNIS          SUNNY     48  36  61 CALM      30.43R                  
THREE FORKS      N/A     50  34  54 CALM      30.30R                  
TWIN BRIDGES     N/A     52  35  52 SE2       30.31R                  
$$

MTZ009-010-012-014-046-048-049-054-271400-
EAST SLOPES AND CENTRAL MONTANA
  
CITY           SKY/WX    TMP DP  RH WIND       PRES   REMARKS
CUT BANK       SUNNY     47  45  93 CALM      30.33R                  
GREAT FALLS    SUNNY     53  48  83 CALM      30.33R                  
MALMSTROM AFB  SUNNY     51  47  86 SW2       30.33R                  
HELENA         SUNNY     57  42  57 CALM      30.34R                  
CHOTEAU          N/A     52  46  82 SW5       30.35R                  
$$

MTZ011-013-016-021-045-047-050-051-271400-
NORTH CENTRAL MONTANA
  
CITY           SKY/WX    TMP DP  RH WIND       PRES   REMARKS
HAVRE          SUNNY     51  49  92 CALM      30.32S                  
LEWISTOWN      SUNNY     51  43  74 SE5       30.37R                  
N BAR RANCH      N/A     52  45  76 NW3       30.40R                  
CHINOOK          N/A     52  52 100 CALM      30.33R                  
$$

MTZ017>020-022>027-061-062-271400-
NORTHEAST MONTANA
  
CITY           SKY/WX    TMP DP  RH WIND       PRES   REMARKS
GLASGOW        SUNNY     55  53  93 NW8       30.32R                  
JORDAN           N/A     51  47  86 W3        30.33R                  
SIDNEY         FOG       56  55  97 CALM      30.31R VSB 1/2          
WOLF POINT     SUNNY     57  55  93 SW5       30.32R                  
PLENTYWOOD       N/A     55  55 100 CALM      30.31S                  
POPLAR           N/A     54  52  94 W6        30.32R                  
$$

MTZ028>42-056>058-271400-
SOUTHCENTRAL AND SOUTHEAST MONTANA
  
CITY           SKY/WX    TMP DP  RH WIND       PRES   REMARKS
BAKER          MOSUNNY   59  53  80 N9        30.33R                  
BILLINGS       MOSUNNY   60  46  59 N5        30.35R                  
LIVINGSTON     SUNNY     51  40  65 NW3       30.38R                  
MILES CITY     SUNNY     58  50  75 CALM      30.33R                  
FORSYTH          N/A     57  50  77 CALM      30.33S                  
LAUREL           N/A     60  46  59 N3        30.31R                  
ROUNDUP          N/A     53  42  66 CALM      30.25R                  
$$

REGIONAL REPORTS...DAKOTAS
  
CITY           SKY/WX    TMP DP  RH WIND       PRES   REMARKS
WILLISTON      CLOUDY    59  54  83 N7        30.31R                  
MINOT          CLOUDY    60  49  66 N5        30.30R                  
DICKINSON      SUNNY     56  53  90 W7        30.30R                  
BEACH            N/A     57  57 100 CALM      30.36R                  
CROSBY         CLOUDY    57  57 100 CALM      30.32R                  
WATFORD CITY   CLOUDY    55  55 100 W3        30.32R                  
BISMARCK       CLOUDY    61  56  83 NW5       30.28S                  
GRAND FORKS    CLOUDY    54  48  80 N12       30.21R                  
FARGO          CLOUDY    57  50  77 N15       30.21S                  
BUFFALO SD       N/A     62  54  74 N5        30.26R                  
RAPID CITY     SUNNY     64  49  57 CALM      30.33R                  
$$

REGIONAL REPORTS...WYOMING/IDAHO/WASHINGTON
  
CITY           SKY/WX    TMP DP  RH WIND       PRES   REMARKS
GILLETTE       SUNNY     59  42  53 CALM      30.34R                  
SHERIDAN       SUNNY     56  44  64 S5        30.36R                  
BUFFALO WY     SUNNY     63  38  39 N5        30.40R                  
CODY             N/A     55  37  50 SE5       30.38R                  
YELLOWSTONE LA   N/A     35  31  85 CALM      30.53R                  
IDAHO FALLS    SUNNY     48  41  76 N8        30.30R                  
BOISE          CLEAR     66  36  32 SE7       30.11R                  
SPOKANE        PTCLDY    61  46  57 NE6       30.17S                  
$$

REGIONAL REPORTS...ALBERTA
  
CITY           SKY/WX    TMP DP  RH WIND       PRES   REMARKS
EDMONTON       MOSUNNY   59  54  82 SW5       30.22S                  
CALGARY        MOSUNNY   54  46  76 CALM      30.30R                  
LETHBRIDGE     MOSUNNY   52  48  87 SW7       30.30R                  
MEDICINE HAT   SUNNY     54  50  87 VRB2      30.30R                  
WATERTON GATE    N/A     48  43  81 SW3         N/A                   
MILK RIVER       N/A     50  46  87 CALM        N/A                   
ONEFOUR          N/A     57  52  82 NE3         N/A                   
$$

REGIONAL REPORTS...SASKATCHEWAN
  
CITY           SKY/WX    TMP DP  RH WIND       PRES   REMARKS
SWIFT CURRENT  SUNNY     54  52  94 SW8       30.29R                  
REGINA         PTSUNNY   57  55  94 CALM      30.30R                  
SASKATOON      PTSUNNY   59  57  94 S6        30.27R                  
CYPRESS HILLS    N/A     54  50  87 W1          N/A                   
VAL MARIE        N/A     52  48  87 CALM        N/A                   
ROCKGLEN         N/A     54  54 100 W3          N/A                   
ASSINIBOIA       N/A     57  54  88 S5          N/A                   
$$
  

Return to Home page


Western Regional Climate Center, wrcc@dri.edu